Location: Newark
(13.6797°N, 8.5297°E)
Time: 06:35:31
(UTC+00:00)

Altair - Pass Details

Date: 27 January 2020
Orbit: 1502 x 1682 km, 47.2° (Epoch: 17 February)

Event Time Altitude Azimuth Distance (km) Brightness Sun altitude
Rises 17:29:22 0° 289° (WNW) 4,838 11.1 -2.2°
Reaches altitude 10° 17:34:02 10° 270° (W) 3,816 11.1 -3.2°
Maximum altitude 17:39:38 17° 234° (SW) 3,250 10.5 -4.5°
Drops below altitude 10° 17:45:10 10° 197° (SSW) 3,729 10.1 -5.8°
Sets 17:49:43 0° 178° (S) 4,680 10.3 -6.9°
